Temp
14 14 14 14 14 14 15 15 14 14 14 15 15 15 15 16 16 16 16 17 17 17 17 17 16 16 16 15 13 14 14 14 15 15 15 15 14 13 11 11 12 11 11 11 11 10 8
14 14 14 14 14 14 14 14 14 14 14 15 15 15 15 15 16 16 16 17 16 17 16 16 16 16 16 13 13 14 14 14 15 15 14 14 13 13 12 11 10 11 10 10 10 9 8
14 14 14 14 14 14 14 14 14 14 14 14 15 15 15 16 16 16 17 16 16 16 16 15 15 15 15 13 13 14 14 14 14 14 14 14 13 13 12 11 11 11 10 9 9 9 7
14 14 14 14 14 14 14 13 13 14 14 14 14 15 15 15 15 16 16 16 15 16 15 15 15 16 14 14 14 14 14 14 14 14 14 14 14 13 12 11 10 9 8 9 10 9 8
14 13 13 13 13 13 13 13 13 14 14 14 14 14 15 15 15 16 16 16 15 15 15 16 16 16 14 14 14 14 14 14 14 14 14 13 14 12 11 8 7 6 8 9 9 8 8
13 13 13 13 13 13 13 13 13 14 14 14 14 14 14 15 15 15 16 15 15 15 15 16 16 16 15 14 14 14 14 14 14 14 13 14 13 8 6 6 8 9 8 8 8 9 6
12 12 12 12 13 13 13 13 13 13 13 13 14 14 14 14 15 15 16 15 15 16 15 14 14 14 14 14 14 14 14 14 14 13 10 10 8 9 10 9 9 9 8 8 8 8 7
12 12 12 12 13 13 13 13 13 13 13 13 13 14 14 14 15 14 15 15 12 13 13 14 14 14 14 14 14 14 14 14 13 10 11 8 10 11 10 10 9 9 8 8 8 8 7
12 12 12 13 13 13 13 13 13 13 13 13 13 14 14 14 14 15 14 13 12 12 13 14 14 14 14 14 14 14 14 13 11 11 10 9 11 11 11 10 9 9 8 9 8 8 5
12 12 12 12 13 13 13 13 13 13 13 13 12 13 14 14 14 14 13 13 12 12 9 12 14 14 14 13 13 14 13 13 12 11 10 10 11 11 11 10 9 8 9 9 9 7 6
12 12 11 12 12 12 12 13 13 13 12 12 12 13 13 13 13 13 12 13 12 12 10 13 14 14 14 14 13 14 13 13 11 11 10 11 11 10 11 11 9 8 9 8 8 7 7
12 12 12 12 12 12 12 12 12 13 13 13 12 13 13 13 13 12 12 12 12 10 9 12 13 11 12 13 13 13 13 12 11 10 9 10 10 10 10 10 9 8 8 7 5 6 6
12 12 12 12 12 12 12 12 13 13 13 13 13 13 13 13 13 13 13 12 10 9 12 12 11 10 10 10 11 10 10 8 8 8 7 7 10 9 10 9 9 7 6 5 6 5 7
12 12 12 12 12 12 12 13 13 13 14 14 13 13 13 13 13 13 13 10 12 12 12 11 10 10 11 9 10 9 10 8 9 8 6 7 8 10 10 10 9 8 7 5 8 6 6
12 12 12 12 12 12 12 13 13 13 14 14 14 13 13 12 13 13 13 8 11 11 11 10 10 10 10 10 10 9 9 8 9 8 9 7 8 8 9 9 9 8 7 7 6 6 5
12 12 12 12 13 13 13 12 13 13 13 13 14 13 12 12 13 13 9 10 10 11 10 10 11 11 10 9 9 8 9 10 10 9 9 9 7 8 8 9 8 9 7 7 5 7 6
12 12 12 12 12 13 13 13 13 13 13 13 13 13 12 12 13 13 8 9 10 11 11 10 10 10 10 9 9 9 10 10 9 9 9 8 6 7 7 8 8 7 6 7 6 6 6
12 12 12 12 12 12 12 12 12 12 12 12 12 10 12 12 11 7 8 9 10 10 10 10 10 9 9 9 9 9 9 10 10 9 9 7 4 5 7 8 7 8 8 7 6 5 5
11 12 12 12 12 12 12 12 12 12 12 12 11 11 12 12 8 7 8 10 10 10 10 10 9 9 9 9 9 9 9 10 9 9 9 7 5 4 7 8 7 7 7 7 6 5 4
11 11 11 12 12 12 12 12 12 12 12 11 10 7 11 11 9 8 8 9 10 10 9 10 9 9 9 9 9 8 9 9 9 9 9 8 4 6 6 8 7 6 6 6 6 3 5
10 11 11 11 11 11 11 11 12 12 11 10 9 7 6 6 7 8 8 8 9 9 9 9 9 9 9 8 8 8 8 7 8 7 7 5 4 3 4 4 4 5 5 5 4 6 5
10 10 10 11 11 11 11 11 11 10 9 9 9 8 7 7 7 7 7 8 8 8 9 9 8 9 8 8 8 8 7 7 6 6 6 4 4 4 4 4 4 4 5 4 4 5 5
10 10 10 10 10 11 10 10 10 9 7 7 8 8 8 6 5 6 6 7 8 8 9 9 8 8 7 7 8 8 8 7 8 6 6 5 5 5 4 3 3 4 5 5 4 3 4
9 10 10 10 10 10 10 10 10 9 7 7 8 8 8 6 5 5 7 7 7 7 7 8 8 7 8 8 7 7 6 5 4 3 5 5 4 5 4 3 3 7 4 4 4 3 2
10 10 10 9 10 10 10 10 9 8 7 7 7 7 7 6 7 7 7 6 7 7 6 7 8 7 7 7 5 5 6 6 4 1 1 2 5 4 4 2 4 5 2 2 2 4 1
9 9 9 9 9 10 10 10 9 9 8 7 7 7 6 6 6 8 8 7 6 5 5 6 7 6 6 5 5 6 7 7 6 4 1 1 2 2 1 3 4 6 1 1 1 2 -1
9 9 9 9 9 9 9 9 9 9 8 6 6 7 7 6 7 7 6 7 7 6 5 6 5 5 5 4 4 5 5 4 5 4 2 1 1 1 3 3 3 2 0 1 5 5 -1
8 8 8 8 9 9 8 8 8 8 8 6 5 6 6 6 6 6 7 8 7 7 6 6 5 4 3 3 4 4 3 3 3 3 2 4 2 2 2 3 3 0 -1 3 1 -3 -2
7 8 8 8 8 7 7 8 8 8 8 7 5 4 5 5 6 5 6 6 6 7 6 5 6 5 4 3 2 2 3 2 3 6 2 4 5 4 4 4 -1 0 -1 -1 -2 -2 -3
Height
1580 1579 1578 1577 1576 1576 1574 1573 1571 1569 1566 1563 1560 1556 1553 1549 1546 1542 1539 1535 1533 1530 1529 1528 1528 1528 1530 1532 1536 1535 1533 1531 1529 1527 1526 1525 1525 1526 1529 1530 1530 1532 1534 1534 1535 1536 1539
1582 1581 1580 1579 1578 1577 1576 1574 1572 1570 1567 1565 1562 1558 1554 1550 1546 1542 1538 1536 1533 1531 1530 1530 1530 1530 1531 1534 1537 1536 1534 1532 1530 1528 1528 1528 1528 1528 1529 1531 1533 1533 1533 1534 1536 1537 1539
1584 1583 1582 1581 1580 1579 1577 1575 1574 1571 1568 1565 1562 1558 1555 1550 1547 1543 1539 1536 1534 1532 1531 1530 1531 1533 1533 1539 1537 1536 1534 1532 1531 1530 1529 1529 1529 1529 1530 1532 1533 1534 1536 1536 1536 1538 1541
1585 1584 1584 1583 1581 1580 1578 1577 1575 1573 1569 1566 1562 1559 1555 1551 1547 1543 1539 1536 1534 1533 1532 1532 1533 1534 1537 1539 1538 1537 1535 1533 1532 1532 1531 1531 1530 1531 1532 1534 1535 1538 1541 1545 1539 1538 1539
1586 1586 1585 1584 1583 1582 1580 1579 1576 1573 1570 1566 1563 1559 1555 1551 1547 1543 1539 1536 1535 1533 1533 1533 1535 1535 1540 1540 1539 1538 1536 1535 1534 1533 1532 1533 1533 1534 1535 1540 1547 1549 1550 1545 1541 1538 1539
1588 1587 1587 1586 1584 1583 1581 1580 1577 1574 1571 1567 1563 1559 1555 1551 1546 1542 1537 1535 1536 1534 1534 1535 1536 1538 1541 1540 1538 1538 1536 1535 1534 1534 1534 1534 1535 1538 1541 1547 1554 1547 1548 1546 1547 1540 1541
1590 1589 1588 1587 1585 1583 1581 1579 1577 1574 1571 1567 1563 1559 1555 1551 1547 1543 1538 1536 1539 1539 1537 1539 1541 1541 1541 1540 1539 1538 1536 1535 1534 1535 1539 1538 1544 1547 1542 1543 1545 1547 1548 1548 1542 1538 1540
1591 1590 1588 1587 1585 1583 1581 1579 1576 1573 1570 1567 1563 1559 1555 1551 1548 1545 1541 1536 1539 1542 1542 1542 1542 1542 1541 1540 1539 1539 1537 1536 1535 1539 1538 1542 1544 1540 1539 1540 1541 1542 1545 1545 1540 1540 1541
1590 1589 1588 1586 1585 1583 1581 1578 1575 1572 1569 1565 1562 1558 1555 1551 1548 1545 1541 1541 1541 1542 1543 1545 1544 1543 1543 1543 1541 1539 1538 1537 1537 1539 1541 1544 1540 1539 1540 1541 1542 1541 1542 1539 1540 1538 1542
1590 1589 1587 1585 1583 1581 1579 1576 1574 1571 1568 1564 1561 1558 1554 1551 1549 1545 1543 1542 1542 1542 1551 1551 1546 1546 1545 1542 1543 1541 1539 1540 1539 1540 1540 1542 1539 1539 1540 1540 1542 1542 1536 1536 1536 1540 1546
1588 1587 1585 1584 1582 1580 1577 1574 1572 1570 1567 1563 1561 1557 1554 1551 1550 1547 1547 1543 1542 1544 1576 1552 1547 1546 1544 1545 1545 1543 1541 1539 1541 1541 1543 1542 1541 1541 1541 1539 1540 1540 1536 1537 1536 1540 1540
1587 1585 1584 1582 1580 1578 1575 1573 1570 1567 1565 1562 1560 1557 1554 1552 1550 1548 1545 1543 1544 1556 1579 1553 1548 1548 1545 1544 1545 1543 1542 1541 1541 1541 1542 1543 1542 1542 1540 1539 1539 1538 1538 1539 1543 1543 1544
1584 1583 1581 1579 1578 1576 1573 1571 1568 1565 1563 1561 1558 1556 1553 1551 1550 1547 1545 1544 1555 1567 1555 1557 1555 1551 1552 1550 1547 1547 1548 1550 1552 1553 1555 1547 1542 1542 1541 1541 1539 1542 1546 1553 1550 1552 1540
1582 1580 1578 1577 1575 1573 1571 1569 1567 1564 1562 1559 1557 1554 1552 1551 1550 1547 1544 1546 1559 1557 1556 1556 1555 1554 1554 1554 1551 1551 1551 1556 1552 1554 1562 1561 1556 1543 1542 1543 1545 1546 1549 1562 1550 1550 1545
1578 1577 1575 1574 1572 1571 1569 1568 1565 1563 1560 1558 1555 1553 1552 1551 1550 1548 1546 1562 1561 1560 1559 1559 1556 1557 1557 1555 1556 1553 1556 1557 1555 1554 1557 1561 1553 1543 1542 1542 1544 1544 1549 1548 1550 1547 1554
1574 1574 1573 1572 1571 1570 1568 1567 1565 1562 1560 1558 1555 1553 1553 1552 1550 1549 1550 1562 1561 1561 1560 1560 1561 1561 1561 1561 1560 1561 1558 1555 1554 1553 1553 1554 1560 1544 1542 1541 1543 1543 1545 1549 1553 1545 1544
1571 1570 1570 1570 1569 1568 1567 1566 1564 1562 1560 1557 1555 1553 1554 1552 1550 1550 1562 1564 1561 1561 1561 1562 1563 1563 1563 1563 1561 1561 1557 1555 1553 1553 1553 1554 1559 1549 1545 1542 1541 1545 1547 1547 1551 1552 1548
1567 1567 1568 1568 1567 1567 1566 1564 1563 1561 1560 1558 1556 1556 1555 1553 1554 1558 1562 1560 1560 1560 1560 1560 1561 1562 1562 1561 1561 1560 1559 1556 1555 1554 1555 1555 1561 1561 1546 1539 1539 1540 1540 1544 1552 1554 1552
1564 1564 1565 1566 1566 1565 1565 1564 1563 1561 1560 1558 1557 1557 1556 1553 1561 1564 1561 1561 1560 1560 1560 1560 1561 1562 1563 1564 1565 1562 1560 1557 1556 1555 1554 1555 1560 1564 1545 1542 1539 1539 1537 1537 1541 1545 1549
1562 1563 1563 1563 1564 1563 1563 1563 1562 1561 1560 1560 1558 1559 1557 1556 1560 1562 1563 1562 1561 1561 1561 1561 1562 1562 1563 1563 1562 1561 1559 1555 1554 1554 1553 1553 1557 1553 1549 1537 1539 1541 1536 1535 1536 1547 1533
1559 1560 1561 1561 1561 1561 1562 1561 1561 1560 1560 1561 1560 1562 1564 1564 1563 1563 1564 1564 1563 1562 1561 1561 1562 1561 1561 1563 1562 1561 1558 1557 1553 1552 1553 1554 1556 1555 1543 1541 1540 1532 1526 1529 1533 1522 1534
1557 1558 1559 1560 1559 1559 1560 1560 1559 1559 1559 1561 1563 1564 1564 1565 1565 1564 1564 1563 1563 1561 1561 1561 1562 1560 1559 1562 1560 1557 1556 1557 1555 1552 1552 1553 1552 1550 1544 1535 1534 1528 1518 1519 1518 1516 1516
1554 1556 1556 1557 1557 1557 1558 1558 1558 1558 1559 1561 1562 1563 1564 1565 1566 1567 1565 1562 1562 1562 1559 1557 1559 1560 1559 1555 1553 1551 1550 1549 1547 1548 1551 1552 1551 1547 1539 1539 1536 1523 1502 1505 1505 1506 1504
1551 1553 1555 1555 1555 1555 1555 1556 1556 1556 1558 1560 1562 1564 1564 1565 1566 1565 1563 1562 1561 1561 1562 1558 1558 1558 1553 1552 1550 1546 1542 1539 1542 1542 1547 1548 1550 1550 1541 1540 1537 1498 1499 1500 1502 1499 1498
1546 1549 1551 1553 1553 1554 1552 1553 1554 1555 1557 1558 1560 1563 1562 1561 1560 1560 1560 1560 1558 1558 1558 1555 1552 1552 1550 1550 1549 1547 1539 1536 1537 1541 1542 1544 1548 1548 1546 1543 1514 1494 1500 1501 1502 1492 1488
1540 1544 1546 1548 1550 1550 1550 1550 1551 1552 1553 1554 1556 1559 1560 1559 1554 1555 1556 1557 1557 1555 1555 1549 1548 1549 1550 1549 1551 1548 1539 1533 1535 1537 1541 1544 1547 1550 1552 1540 1521 1494 1500 1500 1500 1499 1487
1535 1538 1541 1543 1544 1545 1546 1547 1547 1548 1549 1551 1551 1552 1555 1552 1549 1551 1551 1551 1553 1552 1550 1547 1545 1546 1547 1549 1551 1547 1541 1539 1536 1535 1540 1544 1547 1544 1538 1531 1511 1497 1499 1500 1499 1487 1486
1529 1532 1535 1537 1539 1539 1540 1542 1543 1543 1543 1544 1546 1549 1549 1545 1541 1545 1546 1546 1545 1546 1545 1544 1548 1545 1547 1549 1545 1540 1540 1536 1537 1528 1528 1526 1533 1533 1531 1527 1513 1493 1500 1499 1487 1485 1486
1522 1525 1527 1530 1531 1534 1535 1536 1538 1539 1538 1539 1541 1543 1545 1544 1538 1537 1537 1539 1539 1539 1540 1540 1537 1537 1534 1539 1541 1538 1534 1535 1528 1514 1517 1519 1508 1509 1511 1495 1487 1488 1486 1486 1486 1485 1485
Wind_Speed
12 12 12 12 13 13 13 14 15 17 19 21 22 23 22 21 20 22 23 16 13 11 8 6 5 7 7 9 6 9 9 11 8 7 8 7 11 4 4 3 3 4 2 5 8 13 15
11 11 11 11 12 13 13 14 15 17 19 20 22 22 22 20 18 20 22 15 10 14 7 5 6 6 5 7 7 10 9 9 7 7 9 11 8 6 5 3 3 1 4 12 9 9 5
10 10 10 11 11 12 12 13 15 17 19 21 22 22 23 19 18 20 21 16 9 10 7 6 8 12 15 8 8 9 12 9 7 7 7 8 6 6 2 3 3 4 4 3 4 8 6
10 10 10 10 11 11 12 13 15 17 19 21 22 23 22 21 16 20 19 14 8 7 7 7 7 6 7 8 8 8 11 7 5 6 5 5 5 5 4 3 5 4 5 2 0 7 4
9 10 10 10 10 11 11 13 15 18 20 21 22 23 23 22 19 21 18 9 7 6 8 7 6 5 4 7 6 9 12 7 4 5 4 4 4 5 4 4 5 7 2 1 4 4 3
9 8 8 8 9 10 11 13 15 17 19 21 22 24 24 25 19 20 20 6 9 11 7 8 8 6 7 6 4 8 13 7 4 3 2 5 5 4 4 6 1 3 3 3 4 2 5
6 6 7 7 9 10 12 13 15 18 21 21 21 24 25 25 19 21 21 6 4 5 18 10 8 6 6 8 4 8 14 5 4 4 4 5 6 2 3 1 1 1 2 4 4 2 1
5 6 7 9 10 12 13 15 17 20 21 21 22 23 24 22 16 19 21 9 7 5 7 10 7 6 7 11 2 10 14 4 5 3 2 5 1 2 1 2 2 0 2 4 4 1 1
5 7 9 11 13 15 15 17 18 20 21 20 21 22 22 22 13 22 26 16 5 4 3 5 7 6 7 9 4 8 12 4 4 3 3 3 2 1 1 1 4 3 3 2 4 2 1
12 12 12 13 16 19 19 18 19 21 20 19 20 20 19 20 10 20 23 17 2 2 4 8 6 5 8 5 2 7 9 5 3 1 1 1 2 1 1 2 3 3 4 3 3 2 3
15 15 15 17 18 21 23 21 20 21 20 18 17 18 19 17 12 15 19 12 2 2 4 5 5 6 8 4 5 7 7 3 1 3 3 2 2 3 2 2 3 6 1 4 2 3 2
16 18 18 21 22 21 21 20 20 19 19 15 17 17 16 15 12 14 19 7 3 5 2 5 4 7 5 5 5 8 5 5 2 2 3 2 3 1 2 3 2 5 2 3 3 1 1
19 19 20 21 22 21 21 20 20 18 16 14 16 16 14 12 12 15 20 2 5 6 2 5 4 5 2 4 5 7 5 7 4 5 6 6 2 3 1 4 2 8 5 3 4 3 4
22 22 21 21 19 18 18 18 16 14 14 15 15 14 12 8 10 16 14 4 6 2 1 1 3 3 4 6 3 7 2 4 3 4 2 4 6 3 3 1 2 3 2 3 5 3 5
24 22 20 19 17 15 14 13 13 14 15 15 14 13 6 7 9 16 5 5 3 2 2 5 4 5 4 4 4 6 3 0 1 2 3 4 5 3 0 1 3 2 1 2 2 2 2
21 19 17 14 13 12 11 11 12 13 14 15 15 9 4 9 12 9 4 2 0 2 3 2 3 3 4 5 6 6 3 2 1 0 1 2 5 2 4 1 1 2 2 1 2 4 5
17 14 13 11 10 9 10 10 11 12 13 14 13 3 8 11 7 4 4 0 1 1 3 3 1 2 2 3 1 3 3 2 1 0 0 2 2 5 3 3 3 1 1 1 1 2 3
15 12 10 8 8 9 9 9 10 10 11 11 7 3 9 9 3 3 2 1 1 1 1 2 2 1 1 2 2 2 2 2 2 1 3 1 3 4 9 2 2 2 3 4 3 5 3
14 11 10 10 8 8 8 8 9 9 10 11 7 4 7 7 3 2 3 2 0 1 1 1 1 1 0 2 4 1 3 2 3 2 1 2 1 4 8 3 2 3 4 4 2 2 7
13 12 11 9 8 7 7 7 8 7 7 8 4 3 4 7 6 3 2 2 3 2 1 1 0 1 1 1 2 3 2 2 4 4 6 4 3 7 7 6 1 7 7 6 7 4 7
14 13 11 9 8 8 7 7 7 7 5 5 5 3 3 3 4 3 2 2 2 3 1 0 0 2 3 2 3 3 3 5 5 6 1 1 5 5 10 9 7 16 19 11 12 18 10
15 13 11 10 9 8 7 6 6 4 4 2 4 2 2 1 2 1 1 2 2 3 2 1 3 1 5 4 7 10 4 2 6 1 3 1 4 2 8 12 9 12 17 13 15 16 15
16 15 12 11 9 8 8 6 7 2 1 1 1 2 3 1 1 1 3 2 2 0 3 5 3 3 5 10 15 19 19 21 17 5 3 3 2 3 5 3 8 9 12 9 4 5 6
16 14 13 11 10 9 9 8 8 5 6 4 2 2 2 3 2 4 3 5 4 7 5 7 13 5 5 8 15 19 20 21 17 14 14 3 2 2 5 5 2 4 1 3 6 8 8
18 16 15 14 13 12 11 11 12 9 10 10 10 8 5 3 10 7 13 8 9 13 8 12 20 16 13 7 3 5 4 3 1 2 3 11 5 3 3 3 9 6 2 4 5 5 6
18 18 17 16 15 15 14 13 14 13 12 17 14 17 11 4 8 20 5 8 4 3 4 8 12 7 5 2 1 3 3 1 4 2 4 3 4 3 0 4 6 2 3 4 3 5 7
21 19 18 18 16 15 16 15 14 15 15 16 19 17 21 9 15 15 10 5 5 3 3 4 3 4 9 2 3 4 4 1 3 4 4 2 2 11 10 6 8 1 7 5 2 5 5
23 21 20 18 18 17 17 17 16 18 19 19 22 22 23 17 22 22 20 19 12 9 4 4 1 3 2 3 3 4 4 4 2 4 5 7 6 5 4 6 10 12 5 5 1 1 5
27 26 24 22 21 19 17 17 17 17 17 20 22 22 23 25 19 15 14 24 32 30 23 10 5 4 11 2 2 3 4 2 5 7 1 3 8 5 10 7 1 20 5 9 4 4 6
Wind_Direction
83 78 73 69 66 65 59 53 44 34 26 20 16 12 9 6 7 3 4 9 23 12 18 36 98 124 112 86 62 20 18 15 23 27 44 49 52 60 73 63 64 70 68 75 116 109 96
81 78 76 73 70 64 57 51 40 31 26 22 18 14 10 6 6 2 1 7 7 15 26 59 98 111 103 78 42 15 18 15 27 32 51 56 57 68 92 69 76 344 120 146 139 125 127
78 76 74 71 68 63 54 46 36 27 20 15 12 13 14 10 7 4 360 359 8 23 37 82 100 95 83 73 29 25 11 13 31 41 65 57 49 42 82 96 59 104 91 140 158 174 147
81 77 72 69 64 57 45 33 26 20 14 11 8 7 9 11 3 5 360 352 16 29 60 80 104 79 75 44 27 22 15 20 36 38 54 50 46 58 45 90 32 46 45 21 333 156 2
83 79 74 67 58 47 34 23 14 9 7 6 5 3 4 4 3 2 0 359 38 46 83 76 83 88 53 15 23 16 11 8 21 23 36 43 35 45 41 52 20 15 270 289 315 3 134
82 74 63 52 40 29 19 10 5 2 360 360 1 359 357 4 3 7 3 48 77 59 104 78 65 90 33 355 21 10 3 2 5 4 23 30 38 53 31 47 306 287 340 309 259 304 44
62 49 36 25 17 9 3 359 356 356 354 353 353 356 354 360 8 14 8 93 113 75 66 72 68 81 30 18 51 16 7 15 18 49 35 22 66 351 283 192 205 283 239 259 261 179 123
27 12 1 355 351 347 346 344 345 348 348 345 349 354 357 359 12 17 20 68 93 111 75 56 55 45 20 8 29 18 7 29 45 52 353 24 103 246 231 49 19 73 266 283 287 102 258
337 327 326 327 327 327 328 330 334 339 343 343 342 350 358 358 5 13 21 37 102 116 88 35 31 21 2 358 15 4 5 22 64 45 27 144 232 280 175 351 356 279 204 241 229 300 143
315 314 305 309 317 318 317 318 323 332 335 335 335 344 353 359 7 4 14 10 69 105 78 329 1 12 352 353 12 355 2 20 30 74 75 245 327 351 333 281 143 297 227 244 265 57 250
306 310 308 308 309 310 313 314 319 324 329 328 331 339 346 357 353 5 3 1 91 104 52 312 328 345 348 44 335 1 4 14 62 327 82 306 346 348 327 278 180 243 303 257 247 204 20
300 306 302 304 309 310 315 317 319 324 327 334 331 339 339 346 354 353 355 9 116 46 274 336 329 357 26 16 4 342 358 19 32 73 11 292 305 245 271 303 227 330 351 31 39 91 323
299 301 301 302 304 308 311 315 318 324 332 340 337 339 338 337 346 348 346 14 40 96 350 320 329 8 329 327 359 31 23 11 33 21 9 335 321 308 327 330 32 30 32 337 353 1 237
294 296 296 299 302 306 308 314 321 329 335 341 342 341 340 345 350 346 346 50 71 239 274 9 344 324 30 9 18 354 47 23 17 48 51 27 339 360 356 29 307 7 91 125 301 301 291
291 291 292 295 298 303 310 317 322 331 340 344 344 340 354 3 348 345 353 51 176 220 314 350 337 47 335 11 11 15 26 120 259 46 39 17 281 308 117 22 110 338 28 195 246 251 306
285 286 287 290 296 303 311 318 326 334 340 344 346 349 22 351 337 345 60 134 61 9 357 32 17 32 343 329 17 28 337 304 360 93 126 214 296 266 291 340 98 176 192 350 11 317 300
277 279 280 284 291 300 312 318 324 333 340 344 348 19 2 348 359 39 93 176 343 20 11 31 339 327 352 325 330 302 287 303 307 281 78 145 142 285 334 196 193 338 296 121 169 176 258
266 265 266 269 285 300 310 316 320 331 341 346 355 9 356 354 35 47 89 281 320 18 24 57 107 183 225 309 291 294 291 259 328 329 336 256 165 274 243 246 278 204 230 158 132 286 254
249 245 254 273 282 295 306 318 320 328 339 352 355 347 7 16 87 10 328 334 296 349 45 31 42 204 23 302 326 228 326 321 319 337 354 187 279 318 329 7 18 226 212 200 99 113 202
241 246 247 253 271 292 301 310 317 322 331 356 0 19 26 56 79 110 22 337 321 341 17 47 303 74 40 297 225 280 287 270 311 249 253 203 213 199 232 236 183 256 243 211 199 212 247
239 243 245 247 255 274 292 307 318 332 345 5 21 52 25 338 15 47 4 334 321 323 30 256 327 226 184 276 299 254 241 301 300 330 219 180 247 211 263 267 257 264 263 246 223 248 243
238 240 244 251 256 266 280 296 311 319 3 15 24 19 29 354 324 7 338 231 223 288 211 260 215 225 180 210 216 281 256 182 245 345 187 190 275 231 277 249 266 271 265 249 242 251 250
240 238 238 243 248 255 267 280 291 292 276 77 40 336 355 326 19 79 240 224 263 284 262 228 236 286 249 252 274 273 275 264 246 201 197 245 269 323 269 341 303 279 268 214 200 189 183
237 242 242 241 246 255 266 274 280 270 210 217 220 230 186 275 200 214 240 222 238 243 257 272 291 228 260 287 297 282 269 264 256 244 225 225 199 257 283 336 288 261 192 180 226 253 226
230 234 243 252 258 260 263 269 269 254 218 226 232 219 211 246 227 261 252 252 277 266 253 262 276 263 267 303 324 325 303 326 144 63 209 214 208 261 262 240 290 271 183 165 180 282 201
231 239 244 250 258 265 269 269 268 264 244 226 241 248 238 244 216 244 225 251 246 240 292 245 264 246 212 155 139 251 270 259 306 311 64 117 219 200 214 257 257 278 177 167 152 282 172
235 241 249 255 257 266 273 272 271 267 256 238 234 235 252 262 246 245 212 209 215 216 246 262 220 175 186 167 205 222 244 180 249 210 179 124 152 219 233 263 282 289 161 140 166 254 180
238 242 247 255 262 266 268 269 266 260 260 243 242 236 245 257 265 249 248 249 227 230 218 190 69 220 136 187 205 230 222 224 281 213 189 188 186 199 200 223 266 154 122 197 209 143 185
240 245 248 255 262 264 266 267 258 255 255 249 239 248 245 258 267 263 268 259 254 254 263 223 246 207 186 179 204 244 219 204 223 276 68 242 203 194 196 221 147 186 219 232 242 223 189